N0JVW-13 Weather Reports


time (UTC)temp
F
wind
direction
speed
knots
gust
knots
rain 1hr
in
rain 24hr
in
rain mn
in
humidity
%
barometer
mb
20260831115054 74 158 0.0 2.6 0.00 0.00 0.00 71 1012.3
20260831114548 74 162 0.0 2.6 0.00 0.00 0.00 71 1012.2
20260831114014 75 131 0.0 1.7 0.00 0.00 0.00 70 1012.2
20260831113558 75 167 0.0 1.7 0.00 0.00 0.00 70 1012.2
20260831113040 75 143 0.0 1.7 0.00 0.00 0.00 70 1012.1
20260831112521 74 149 0.0 1.7 0.00 0.00 0.00 70 1012.1
20260831112101 74 134 0.0 0.9 0.00 0.00 0.00 70 1012.1
20260831111546 74 153 0.0 1.7 0.00 0.00 0.00 70 1011.9
20260831111018 75 143 0.0 1.7 0.00 0.00 0.00 70 1011.8
20260831110602 75 159 0.0 1.7 0.00 0.00 0.00 70 1011.8
20260831110041 75 141 0.0 1.7 0.00 0.00 0.00 70 1011.9
20260831105521 75 108 0.0 1.7 0.00 0.00 0.00 70 1011.8
20260831105107 75 101 0.0 1.7 0.00 0.00 0.00 70 1011.7
20260831104546 75 155 0.0 1.7 0.00 0.00 0.00 70 1011.6
20260831104023 75 122 0.0 2.6 0.00 0.00 0.00 70 1011.5
20260831103504 75 144 0.9 2.6 0.00 0.00 0.00 70 1011.4
20260831103047 75 154 0.0 1.7 0.00 0.00 0.00 70 1011.4
20260831102529 75 155 0.0 1.7 0.00 0.00 0.00 70 1011.4
20260831102006 75 139 0.0 1.7 0.00 0.00 0.00 69 1011.4
20260831101550 75 124 0.0 1.7 0.00 0.00 0.00 69 1011.4
20260831101030 75 162 0.0 1.7 0.00 0.00 0.00 69 1011.2
20260831100509 76 169 0.0 0.9 0.00 0.00 0.00 69 1011.3
20260831100115 76 145 0.0 0.9 0.00 0.00 0.00 69 1011.3
20260831095532 76 150 0.0 1.7 0.00 0.00 0.00 69 1011.3
20260831095011 76 142 0.0 1.7 0.00 0.00 0.00 68 1011.2
20260831094556 76 158 0.0 1.7 0.00 0.00 0.00 68 1011.2
20260831094034 76 169 0.0 1.7 0.00 0.00 0.00 68 1011.3
20260831093517 76 148 0.0 2.6 0.00 0.00 0.00 68 1011.3
20260831093059 76 128 0.0 2.6 0.00 0.00 0.00 67 1011.2
20260831092537 76 161 0.0 1.7 0.00 0.00 0.00 67 1011.3
20260831092022 77 137 0.0 2.6 0.00 0.00 0.00 67 1011.2
20260831091605 77 157 0.9 2.6 0.00 0.00 0.00 66 1011.2
20260831091040 77 137 0.0 2.6 0.00 0.00 0.00 66 1011.2
20260831090520 77 115 0.9 2.6 0.00 0.00 0.00 66 1011.1
20260831085542 77 158 0.0 1.7 0.00 0.00 0.00 66 1011.1
20260831085022 77 134 0.0 1.7 0.00 0.00 0.00 65 1011.1
20260831084501 77 159 0.0 1.7 0.00 0.00 0.00 65 1011.1
20260831084044 77 140 0.0 1.7 0.00 0.00 0.00 65 1011.1
20260831083524 77 155 0.0 1.7 0.00 0.00 0.00 65 1011.1
20260831083003 77 134 0.0 1.7 0.00 0.00 0.00 65 1011.2
20260831082547 77 155 0.0 1.7 0.00 0.00 0.00 65 1011.2
20260831082026 77 122 0.0 1.7 0.00 0.00 0.00 65 1011.1
20260831081506 77 141 0.0 2.6 0.00 0.00 0.00 65 1011.1
20260831081049 77 171 0.0 2.6 0.00 0.00 0.00 65 1011.0
20260831080529 77 139 0.0 1.7 0.00 0.00 0.00 65 1010.9
20260831080007 77 155 0.0 1.7 0.00 0.00 0.00 65 1010.9
20260831075551 77 136 0.0 1.7 0.00 0.00 0.00 65 1010.8
20260831075032 78 155 0.0 1.7 0.00 0.00 0.00 64 1010.8
20260831074510 78 146 0.0 1.7 0.00 0.00 0.00 65 1010.8
20260831074054 78 158 0.0 2.6 0.00 0.00 0.00 65 1010.8
20260831073534 78 129 0.0 2.6 0.00 0.00 0.00 65 1010.8
20260831073017 78 155 0.0 2.6 0.00 0.00 0.00 65 1010.7
20260831072556 78 146 0.0 1.7 0.00 0.00 0.00 65 1010.8
20260831072036 78 157 0.0 2.6 0.00 0.00 0.00 65 1010.8
20260831071518 78 155 0.0 2.6 0.00 0.00 0.00 65 1010.7
20260831071059 78 141 0.0 2.6 0.00 0.00 0.00 65 1010.7
20260831070538 78 159 0.0 2.6 0.00 0.00 0.00 64 1010.7
20260831070017 78 124 0.9 1.7 0.00 0.00 0.00 64 1010.6
20260831065603 78 133 0.9 1.7 0.00 0.00 0.00 64 1010.6
20260831065041 78 154 0.0 1.7 0.00 0.00 0.00 64 1010.7
20260831064523 78 138 0.0 2.6 0.00 0.00 0.00 63 1010.6
20260831064102 78 162 0.0 2.6 0.00 0.00 0.00 63 1010.5
20260831063542 78 139 0.0 1.7 0.00 0.00 0.00 63 1010.5
20260831063025 79 150 0.0 1.7 0.00 0.00 0.00 63 1010.5
20260831062501 79 139 0.0 1.7 0.00 0.00 0.00 63 1010.4
20260831062045 79 133 0.0 1.7 0.00 0.00 0.00 62 1010.4
20260831061525 79 128 0.0 0.9 0.00 0.00 0.00 62 1010.4
20260831061006 79 160 0.0 1.7 0.00 0.00 0.00 61 1010.3
20260831060546 79 130 0.0 1.7 0.00 0.00 0.00 61 1010.3
20260831060027 80 163 0.0 0.9 0.00 0.00 0.00 60 1010.3
20260831055505 80 158 0.0 1.7 0.00 0.00 0.00 60 1010.3
20260831055049 80 139 0.0 1.7 0.00 0.00 0.00 60 1010.2
20260831054528 80 146 0.0 1.7 0.00 0.00 0.00 60 1010.2
20260831054006 80 153 0.0 1.7 0.00 0.00 0.00 59 1010.1
20260831053550 80 153 0.0 1.7 0.00 0.00 0.00 59 1010.0
20260831053032 80 140 0.0 1.7 0.00 0.00 0.00 60 1010.1
20260831052509 80 148 0.0 1.7 0.00 0.00 0.00 59 1010.2
20260831052052 80 141 0.0 1.7 0.00 0.00 0.00 59 1010.1
20260831051531 81 132 0.0 1.7 0.00 0.00 0.00 59 1010.0
20260831051010 81 127 0.0 1.7 0.00 0.00 0.00 58 1010.0
20260831050553 81 153 0.0 0.9 0.00 0.00 0.00 58 1010.0
20260831050033 81 153 0.0 0.9 0.00 0.00 0.00 58 1010.0
20260831045513 81 146 0.0 0.9 0.00 0.00 0.00 57 1010.1
20260831045057 81 136 0.0 0.9 0.00 0.00 0.00 58 1010.1
20260831044536 82 150 0.0 0.0 0.00 0.00 0.00 57 1010.2
20260831044015 82 153 0.0 0.9 0.00 0.00 0.00 56 1010.2
20260831043558 82 162 0.0 0.9 0.00 0.00 0.00 56 1010.2
20260831043044 82 146 0.0 0.9 0.00 0.00 0.00 56 1010.1
20260831042518 82 146 0.0 0.9 0.00 0.00 0.00 56 1010.1
20260831042103 83 146 0.0 0.9 0.00 0.00 0.00 55 1010.1
20260831041553 83 124 0.0 0.9 0.00 0.00 0.00 55 1010.1
20260831041021 83 152 0.0 0.9 0.00 0.00 0.00 55 1010.2
20260831040604 83 140 0.0 0.9 0.00 0.00 0.00 54 1010.1
20260831040043 83 131 0.0 0.0 0.00 0.00 0.00 54 1010.2
20260831035524 84 129 0.0 0.0 0.00 0.00 0.00 54 1010.2
20260831035002 84 134 0.0 0.0 0.00 0.00 0.00 54 1010.2
20260831034546 84 156 0.0 0.9 0.00 0.00 0.00 54 1010.2
20260831034025 84 169 0.0 0.9 0.00 0.00 0.00 54 1010.2
20260831033508 84 144 0.0 1.7 0.00 0.00 0.00 54 1010.1
20260831033105 84 152 0.0 1.7 0.00 0.00 0.00 54 1010.1
20260831032530 84 117 0.0 1.7 0.00 0.00 0.00 54 1010.1
20260831032008 84 143 0.0 1.7 0.00 0.00 0.00 53 1010.1
20260831031554 85 136 0.0 1.7 0.00 0.00 0.00 53 1010.0
20260831031031 85 166 0.0 0.9 0.00 0.00 0.00 53 1010.0
20260831030511 85 143 0.0 1.7 0.00 0.00 0.00 53 1010.1
20260831030053 85 157 0.0 1.7 0.00 0.00 0.00 53 1010.0
20260831025533 85 146 0.0 1.7 0.00 0.00 0.00 53 1010.0
20260831025012 85 163 0.0 1.7 0.00 0.00 0.00 53 1010.0
20260831024600 85 130 0.0 1.7 0.00 0.00 0.00 53 1009.9
20260831024037 85 153 0.0 1.7 0.00 0.00 0.00 53 1009.9
20260831023515 85 149 0.0 1.7 0.00 0.00 0.00 53 1009.9
20260831023100 85 146 0.0 1.7 0.00 0.00 0.00 53 1009.8
20260831022537 85 155 0.0 0.9 0.00 0.00 0.00 53 1009.8
20260831022017 86 119 0.0 0.9 0.00 0.00 0.00 53 1009.7
20260831021600 86 140 0.0 0.9 0.00 0.00 0.00 53 1009.7
20260831021041 86 134 0.0 1.7 0.00 0.00 0.00 52 1009.7
20260831020522 86 154 0.0 1.7 0.00 0.00 0.00 52 1009.7
20260831015541 86 141 0.0 0.9 0.00 0.00 0.00 52 1009.5
20260831015020 86 150 0.0 1.7 0.00 0.00 0.00 52 1009.4
20260831014606 87 141 0.0 1.7 0.00 0.00 0.00 52 1009.3
20260831014044 87 139 0.0 0.9 0.00 0.00 0.00 52 1009.3
20260831013524 87 148 0.0 0.9 0.00 0.00 0.00 52 1009.3
20260831013003 87 141 0.0 0.9 0.00 0.00 0.00 51 1009.2
20260831012546 87 153 0.0 0.9 0.00 0.00 0.00 52 1009.2
20260831012026 88 118 0.0 0.9 0.00 0.00 0.00 52 1009.1
20260831011515 88 142 0.0 0.0 0.00 0.00 0.00 51 1009.1
20260831011049 88 142 0.0 0.0 0.00 0.00 0.00 51 1009.1
20260831010529 89 142 0.0 0.0 0.00 0.00 0.00 51 1009.0
20260831010013 89 142 0.0 0.9 0.00 0.00 0.00 50 1008.9
20260831005554 89 141 0.0 0.9 0.00 0.00 0.00 49 1008.9
20260831005031 90 141 0.0 0.9 0.00 0.00 0.00 49 1008.8
20260831004513 90 153 0.0 1.7 0.00 0.00 0.00 48 1008.7
20260831004054 90 139 0.0 1.7 0.00 0.00 0.00 48 1008.7
20260831003535 91 155 0.0 1.7 0.00 0.00 0.00 47 1008.7
20260831003020 91 143 0.0 2.6 0.00 0.00 0.00 47 1008.7
20260831002555 91 171 0.0 2.6 0.00 0.00 0.00 47 1008.6
20260831002035 91 129 0.0 2.6 0.00 0.00 0.00 47 1008.6
20260831001523 92 132 0.0 2.6 0.00 0.00 0.00 46 1008.5
20260831001058 92 143 0.0 0.9 0.00 0.00 0.00 46 1008.5
20260831000538 92 133 0.0 0.9 0.00 0.00 0.00 46 1008.5
20260831000018 92 128 0.0 0.9 0.00 0.00 0.00 45 1008.6
20260830235603 92 149 0.0 0.9 0.00 0.00 0.00 45 1008.5
20260830235045 93 134 0.0 0.9 0.00 0.00 0.00 44 1008.5
20260830234518 93 148 0.0 0.9 0.00 0.00 0.00 44 1008.5
20260830234102 93 148 0.0 1.7 0.00 0.00 0.00 43 1008.6
20260830233542 94 148 0.0 1.7 0.00 0.00 0.00 42 1008.5
20260830233021 94 134 0.0 1.7 0.00 0.00 0.00 41 1008.5
20260830232501 94 145 0.0 1.7 0.00 0.00 0.00 41 1008.5
20260830232045 94 157 0.9 2.6 0.00 0.00 0.00 40 1008.5
20260830231524 94 151 0.0 1.7 0.00 0.00 0.00 40 1008.5
20260830231105 95 157 0.0 2.6 0.00 0.00 0.00 40 1008.5
20260830230543 95 128 0.0 2.6 0.00 0.00 0.00 39 1008.5
20260830230027 95 122 0.9 2.6 0.00 0.00 0.00 39 1008.4
20260830225502 95 167 0.9 2.6 0.00 0.00 0.00 40 1008.4
20260830225046 95 172 0.0 2.6 0.00 0.00 0.00 39 1008.4
20260830224525 95 164 0.0 2.6 0.00 0.00 0.00 39 1008.4
20260830224006 96 131 0.0 3.5 0.00 0.00 0.00 38 1008.5
20260830223550 96 122 0.0 3.5 0.00 0.00 0.00 38 1008.5
20260830223030 96 129 0.0 3.5 0.00 0.00 0.00 38 1008.4
20260830222509 96 129 1.7 4.3 0.00 0.00 0.00 39 1008.4
20260830222052 96 134 0.9 4.3 0.00 0.00 0.00 40 1008.4
20260830221531 96 157 0.9 3.5 0.00 0.00 0.00 41 1008.4
20260830221011 96 146 1.7 3.5 0.00 0.00 0.00 40 1008.4
20260830220555 96 176 1.7 3.5 0.00 0.00 0.00 41 1008.5
20260830220037 96 140 0.9 2.6 0.00 0.00 0.00 41 1008.6
20260830215514 96 125 0.0 3.5 0.00 0.00 0.00 41 1008.6
20260830215058 96 126 0.9 3.5 0.00 0.00 0.00 41 1008.6
20260830214537 96 124 0.0 2.6 0.00 0.00 0.00 42 1008.7
20260830214015 96 134 0.9 2.6 0.00 0.00 0.00 42 1008.7
20260830213559 96 120 0.0 3.5 0.00 0.00 0.00 43 1008.7
20260830213038 96 159 0.9 4.3 0.00 0.00 0.00 42 1008.8
20260830212519 96 146 0.9 4.3 0.00 0.00 0.00 42 1008.7
20260830212101 96 131 0.0 2.6 0.00 0.00 0.00 43 1008.7
20260830211541 96 165 0.0 2.6 0.00 0.00 0.00 42 1008.8
20260830211019 96 155 0.9 3.5 0.00 0.00 0.00 42 1008.9
20260830210602 96 165 1.7 4.3 0.00 0.00 0.00 43 1009.0
20260830210051 96 134 0.9 4.3 0.00 0.00 0.00 42 1009.0
20260830205526 96 142 0.0 3.5 0.00 0.00 0.00 42 1009.1
20260830205104 96 152 0.9 3.5 0.00 0.00 0.00 42 1009.2
20260830204548 96 132 0.0 3.5 0.00 0.00 0.00 43 1009.2
20260830204024 96 158 0.9 3.5 0.00 0.00 0.00 42 1009.4
20260830203503 96 168 0.9 5.2 0.00 0.00 0.00 42 1009.5
20260830203046 96 129 1.7 4.3 0.00 0.00 0.00 41 1009.6
20260830202525 96 146 0.0 4.3 0.00 0.00 0.00 42 1009.7
20260830202005 96 162 1.7 3.5 0.00 0.00 0.00 41 1009.7
20260830201550 96 124 0.0 3.5 0.00 0.00 0.00 42 1009.8
20260830201028 95 130 0.0 3.5 0.00 0.00 0.00 43 1009.8
20260830200506 95 128 0.0 4.3 0.00 0.00 0.00 43 1009.7
20260830200105 95 122 0.9 5.2 0.00 0.00 0.00 42 1009.9
20260830195530 95 174 1.7 5.2 0.00 0.00 0.00 42 1009.9
20260830195009 95 164 1.7 5.2 0.00 0.00 0.00 42 1010.0
20260830194618 95 162 0.9 5.2 0.00 0.00 0.00 43 1010.1
20260830194029 95 155 0.9 5.2 0.00 0.00 0.00 43 1010.1
20260830193509 95 155 0.9 4.3 0.00 0.00 0.00 43 1010.2
20260830193052 95 158 0.9 4.3 0.00 0.00 0.00 45 1010.3
20260830192531 95 145 0.9 4.3 0.00 0.00 0.00 43 1010.2
20260830192010 94 175 0.0 4.3 0.00 0.00 0.00 44 1010.4
20260830191559 95 174 0.9 4.3 0.00 0.00 0.00 44 1010.3
20260830191034 95 165 0.0 3.5 0.00 0.00 0.00 45 1010.4
20260830190513 95 165 1.7 3.5 0.00 0.00 0.00 44 1010.4
20260830190057 94 137 0.0 3.5 0.00 0.00 0.00 46 1010.5
20260830185537 94 141 0.0 3.5 0.00 0.00 0.00 45 1010.5
20260830185015 93 131 0.9 4.3 0.00 0.00 0.00 46 1010.6
20260830184558 93 148 0.9 3.5 0.00 0.00 0.00 45 1010.7
20260830184038 93 140 0.9 4.3 0.00 0.00 0.00 46 1010.7
20260830183518 93 127 0.0 4.3 0.00 0.00 0.00 47 1010.7
20260830183117 93 136 0.9 4.3 0.00 0.00 0.00 47 1010.7
20260830182540 92 173 0.0 4.3 0.00 0.00 0.00 47 1010.7
20260830182019 92 125 1.7 4.3 0.00 0.00 0.00 46 1010.8
20260830181603 92 129 0.9 5.2 0.00 0.00 0.00 47 1010.9
20260830181044 92 183 1.7 5.2 0.00 0.00 0.00 47 1010.9
20260830180521 92 177 0.0 3.5 0.00 0.00 0.00 49 1010.9
20260830180000 91 156 0.0 4.3 0.00 0.00 0.00 47 1010.9
20260830175544 91 171 0.9 5.2 0.00 0.00 0.00 48 1011.0
20260830175024 91 131 1.7 5.2 0.00 0.00 0.00 47 1011.1
20260830174503 91 165 0.9 5.2 0.00 0.00 0.00 47 1011.2
20260830174049 91 150 0.9 5.2 0.00 0.00 0.00 49 1011.1
20260830173525 90 204 0.9 5.2 0.00 0.00 0.00 50 1011.2
20260830173002 90 174 1.7 5.2 0.00 0.00 0.00 49 1011.3
20260830172545 90 194 0.0 3.5 0.00 0.00 0.00 52 1011.2
20260830172029 89 168 0.0 5.2 0.00 0.00 0.00 52 1011.3
20260830171505 89 214 0.9 5.2 0.00 0.00 0.00 51 1011.4
20260830171049 88 175 0.9 3.5 0.00 0.00 0.00 52 1011.5
20260830170528 88 254 0.0 3.5 0.00 0.00 0.00 51 1011.4
20260830170011 88 150 0.9 5.2 0.00 0.00 0.00 53 1011.4
20260830165549 88 150 0.9 5.2 0.00 0.00 0.00 52 1011.5
20260830165030 87 157 0.9 5.2 0.00 0.00 0.00 53 1011.5
20260830164513 87 285 0.0 4.3 0.00 0.00 0.00 54 1011.6
20260830164100 87 208 0.9 5.2 0.00 0.00 0.00 52 1011.6
20260830163540 87 170 0.9 5.2 0.00 0.00 0.00 53 1011.7
20260830163023 87 160 0.9 4.3 0.00 0.00 0.00 53 1011.6
20260830162602 86 155 0.9 3.5 0.00 0.00 0.00 55 1011.6
20260830162041 86 144 0.0 4.3 0.00 0.00 0.00 55 1011.8
20260830161522 85 167 0.9 4.3 0.00 0.00 0.00 55 1011.8
20260830161103 85 166 0.0 4.3 0.00 0.00 0.00 56 1011.7
20260830160543 85 218 1.7 5.2 0.00 0.00 0.00 56 1011.8
20260830160022 84 160 1.7 6.1 0.00 0.00 0.00 56 1011.8
20260830155604 84 140 1.7 6.1 0.00 0.00 0.00 56 1011.8
20260830155043 84 104 0.9 5.2 0.00 0.00 0.00 57 1011.8
20260830154522 83 157 0.0 3.5 0.00 0.00 0.00 58 1011.7
20260830154002 83 117 0.9 3.5 0.00 0.00 0.00 59 1011.7
20260830153545 83 173 1.7 4.3 0.00 0.00 0.00 59 1011.7
20260830153040 82 145 1.7 4.3 0.00 0.00 0.00 59 1011.6
20260830152503 82 188 1.7 4.3 0.00 0.00 0.00 60 1011.4
20260830152046 81 148 0.0 5.2 0.00 0.00 0.00 60 1011.4
20260830151526 81 213 0.9 5.2 0.00 0.00 0.00 60 1011.4
20260830151006 81 148 0.0 3.5 0.00 0.00 0.00 62 1011.3
20260830150548 80 157 0.0 3.5 0.00 0.00 0.00 63 1011.3
20260830150031 80 153 0.0 3.5 0.00 0.00 0.00 63 1011.4
20260830145509 79 170 0.9 5.2 0.00 0.00 0.00 62 1011.4
20260830145050 79 175 0.9 5.2 0.00 0.00 0.00 63 1011.5
20260830144531 79 106 0.0 3.5 0.00 0.00 0.00 63 1011.4
20260830144013 79 172 0.9 6.1 0.00 0.00 0.00 62 1011.4
20260830143553 79 171 2.6 6.1 0.00 0.00 0.00 62 1011.4
20260830143033 79 80 0.9 3.5 0.00 0.00 0.00 63 1011.4
20260830142515 79 161 0.0 3.5 0.00 0.00 0.00 64 1011.6
20260830142056 78 165 0.9 5.2 0.00 0.00 0.00 64 1011.6
20260830141536 78 154 0.9 5.2 0.00 0.00 0.00 64 1011.6
20260830141014 78 128 0.9 4.3 0.00 0.00 0.00 65 1011.7
20260830140557 77 175 0.0 4.3 0.00 0.00 0.00 66 1011.6
20260830140037 77 170 0.9 4.3 0.00 0.00 0.00 66 1011.6
20260830135519 77 163 0.0 3.5 0.00 0.00 0.00 67 1011.5
20260830135101 77 176 0.0 3.5 0.00 0.00 0.00 67 1011.6
20260830134542 76 220 1.7 4.3 0.00 0.00 0.00 66 1011.6
20260830134019 76 186 1.7 3.5 0.00 0.00 0.00 67 1011.7
20260830133604 76 183 1.7 3.5 0.00 0.00 0.00 67 1011.7
20260830133041 75 152 0.9 3.5 0.00 0.00 0.00 68 1011.6
20260830132522 75 160 0.9 6.1 0.00 0.00 0.00 69 1011.8
20260830132104 75 167 1.7 6.1 0.00 0.00 0.00 68 1011.8
20260830131555 74 133 1.7 3.5 0.00 0.00 0.00 70 1011.8
20260830131024 74 148 0.0 2.6 0.00 0.00 0.00 70 1011.9
20260830130506 74 152 0.9 2.6 0.00 0.00 0.00 71 1012.0
20260830130046 73 166 0.9 2.6 0.00 0.00 0.00 71 1012.0
20260830125525 73 162 0.0 2.6 0.00 0.00 0.00 71 1012.0
20260830125009 73 160 0.0 2.6 0.00 0.00 0.00 71 1012.0
20260830124549 73 155 0.0 2.6 0.00 0.00 0.00 72 1012.1
20260830124030 73 164 0.0 2.6 0.00 0.00 0.00 72 1012.1
20260830123506 73 129 0.9 1.7 0.00 0.00 0.00 72 1012.1
20260830123051 73 148 0.0 1.7 0.00 0.00 0.00 72 1012.1
20260830122530 73 141 0.0 1.7 0.00 0.00 0.00 72 1012.0
20260830122010 73 170 0.0 1.7 0.00 0.00 0.00 72 1012.1
20260830121553 73 143 0.0 1.7 0.00 0.00 0.00 72 1012.1
20260830121031 73 147 0.0 1.7 0.00 0.00 0.00 72 1012.1
20260830120511 73 122 0.0 1.7 0.00 0.00 0.00 71 1012.1
20260830120055 73 146 0.0 1.7 0.00 0.00 0.00 72 1012.1
20260830115535 73 118 0.0 1.7 0.00 0.00 0.00 71 1012.0